< < Back
Terminal Aerodrome Forecast


Current Version              Previous Versions:   1  2  3  4  5  6  7  8  9  

Terminal Aerodrome Forecast

077
FTUS42 KTAE 172300
TAFABY
TAF
KABY 172320Z 1800/1824 33003KT P6SM SKC
      TEMPO 1810/1812 5SM BR
     FM181300 33005KT P6SM FEW250=



Latest METAR

459
SAUS70 KWBC 180700 RRA
MTRABY
METAR KABY 180653Z 31003KT 10SM CLR 22/21 A2992 RMK AO2 SLP130
T02220211


USA.gov is the U.S. government's official web portal to all federal, state and local government web resources and services.